Location: River Trails Mobile Home Park
(26.7105°N, 81.8501°W)
Time: 02:05:30
(UTC+00:00)

Daily predictions for brighter satellites

Satellite Brightness Start Highest point End
(mag) Time Altitude Azimuth Time Altitude Azimuth Time Altitude Azimuth
Cosmos 2208 Rocket 4.3 00:22:08 10° N 00:27:29 56° ENE 00:32:49 10° SSE
ERS-2 2.7 00:26:54 10° NNE 00:30:15 36° E 00:33:37 10° SSE
H-2A R/B 2.6 00:27:16 10° S 00:32:04 58° W 00:36:56 10° NNW
Cosmos 1606 2.7 00:29:15 10° S 00:32:56 60° E 00:36:39 10° NNE
FALCON 9 DEB 3.2 00:30:06 10° NNW 00:33:01 46° NE 00:35:56 10° SE
Cosmos 1503 Rocket 4.1 00:28:15 10° S 00:33:12 51° ESE 00:38:13 10° NNE
Helios 1A Rocket 4.0 00:31:45 10° SE 00:35:16 28° ENE 00:38:48 10° NNE
Cosmos 540 Rocket 4.4 00:30:39 10° NNW 00:35:33 49° WSW 00:40:27 10° S
ISS -1.9 00:34:48 10° SSE 00:36:31 13° SE 00:38:14 10° E
FALCON 9 DEB 2.9 00:34:24 10° NNW 00:37:23 61° NE 00:40:22 10° SE
Cosmos 1603 4.4 00:33:18 10° NNW 00:38:48 56° WSW 00:44:14 10° S
CZ-4 R/B 2.2 00:35:12 10° S 00:39:13 54° W 00:43:11 10° NNW
Cosmos 1862 3.3 00:36:20 10° N 00:40:21 72° E 00:44:22 10° S
Cosmos 1743 Rocket 4.1 00:37:06 10° NNE 00:41:10 38° E 00:45:15 10° SSE
CZ-2C R/B 3.8 00:36:38 10° N 00:41:54 50° WNW 00:47:14 10° SSW
GPS 2-18 Rocket1 4.0 00:40:12 10° WSW 00:43:36 32° S 00:46:36 12° ESE
SAR-Lupe-4 3.6 00:43:23 10° NNE 00:46:59 87° W 00:50:32 10° SSW
GEOS 3 Rocket 3.9 00:43:38 10° SE 00:48:52 58° NE 00:54:08 10° NNW
Cosmos 1933 4.1 00:46:13 10° SSE 00:49:50 32° E 00:53:27 10° NNE
OAO 3 Rocket 3.1 00:45:39 10° SW 00:50:14 68° SSE 00:54:52 10° ENE
Cosmos 1500 Rocket 3.7 00:46:54 10° N 00:51:09 53° E 00:55:20 10° SSE
Tianhe-1 1.0 00:48:53 10° SW 00:51:57 60° SE 00:55:02 10° ENE
Cosmos 1844 Rocket 4.4 00:48:02 10° SW 00:53:06 36° WNW 00:58:13 10° N
Intercosmos 25 Rocket 4.4 00:50:21 10° NNE 00:53:43 24° ENE 00:55:31 16° ESE
FALCON 9 DEB 2.8 00:51:35 10° NW 00:54:36 72° NE 00:56:46 17° SE
Cosmos 2278 Rocket 3.1 00:50:09 10° SSE 00:54:46 26° ESE 00:59:24 10° NE
Cosmos 1782 4.3 00:54:12 15° ESE 00:55:59 19° E 00:58:49 10° NE
SJ 16-02 3.4 00:59:40 11° E 00:59:40 11° E 01:00:18 10° ENE
CSL-04 Debris 4.2 00:54:30 10° SSE 00:59:57 88° W 01:05:22 10° NNW
MetOp-A 4.2 00:57:50 10° SSE 01:03:04 58° ENE 01:08:19 10° N
YAOGAN 1 4.4 01:01:35 10° SSW 01:05:23 31° W 01:09:13 10° NW
Mugunghwa Rocket 3.9 00:59:26 10° WSW 01:05:42 73° SSE 01:11:46 12° E
IUS-13 SRM-1 3.6 01:03:56 10° S 01:05:21 17° SSE 01:05:21 17° SSE
Intercosmos 24 3.8 01:02:55 10° S 01:07:02 58° E 01:10:31 10° NNE
Cosmos 1354 Rocket 4.1 01:02:29 10° SSW 01:07:42 82° WNW 01:12:56 10° NNE
SJ-6B 3.4 01:05:30 19° SE 01:07:47 38° ENE 01:11:27 10° N
Okean-O 4.0 01:03:55 10° SSW 01:08:01 38° W 01:12:10 10° NNW
Sich 1 3.9 01:05:08 10° NNE 01:09:00 31° E 01:10:56 22° SE
CSL-04 Rocket 3.8 01:04:43 10° S 01:09:58 77° WSW 01:15:19 10° NNW
Milstar 3 4.5 00:49:12 10° WSW 01:11:18 80° SSE 01:21:55 10° E
Cosmos 1151 Rocket 3.7 01:09:28 18° SE 01:11:59 33° E 01:15:53 10° NNE
ATLAS 5 CENTAUR R/B 3.5 01:10:51 10° N 01:16:17 32° ENE 01:19:47 20° ESE
FALCON 9 DEB 4.3 01:25:00 10° WNW 01:27:44 30° SW 01:28:47 23° SSW
Cosmos 1745 Rocket 3.9 01:26:36 10° N 01:32:45 73° E 01:37:11 20° SSE
SL-4 R/B 2.6 01:29:08 10° NW 01:33:33 61° SW 01:35:38 31° SSE
Cosmos 1709 Rocket 4.4 01:29:09 10° NNE 01:34:49 39° E 01:36:46 31° ESE
GPS 2-17 Rocket1 3.8 01:30:56 10° WSW 01:35:18 37° S 01:36:15 33° SSE
Cosmos 1242 Rocket 3.9 01:35:48 10° SSW 01:39:10 39° W 01:42:31 10° N
Cosmos 1833 Rocket 4.4 01:36:10 10° NNE 01:39:26 15° ENE 01:39:57 15° ENE
USA 186 3.1 01:38:39 22° SW 01:39:26 27° W 01:41:35 10° NW
Resurs 01 Rocket 2.6 01:41:40 29° ENE 01:41:40 29° ENE 01:45:24 10° NNE
MOS 1 4.2 01:41:31 31° SSE 01:44:16 71° ENE 01:49:54 10° N
Meteor 1-25 Rocket 4.2 01:38:36 10° N 01:44:26 72° E 01:47:11 32° SSE
CZ-2C R/B 4.3 01:41:08 10° NNE 01:44:54 38° E 01:44:54 38° E
BREEZE-M (TANK) 3.6 01:37:23 10° NW 01:45:47 44° WSW 01:47:02 31° S
Cosmos 1515 Rocket 4.3 01:53:19 36° ENE 01:53:19 36° ENE 01:56:30 10° NNE
Cosmos 2315 Rocket 4.0 01:47:37 12° S 01:53:40 90° E 02:00:05 10° N
X-37B 3.3 01:52:56 10° N 01:54:18 13° NNE 01:54:18 13° NNE
OBJECT-B 2.5 01:55:48 25° SW 01:56:41 29° W 01:59:34 10° NW
CZ-2C R/B 3.6 01:56:04 10° SW 01:56:31 13° SW 01:56:31 13° SW
USA 267 3.6 02:03:08 34° S 02:05:57 58° SW 02:12:24 10° NW
Cosmos 1328 Rocket 4.0 02:05:04 35° SSW 02:06:42 60° W 02:11:04 10° N
Cosmos 1633 Rocket 3.0 02:03:55 10° N 02:07:58 72° NE 02:07:58 72° NE
ISS -1.9 02:10:03 10° WSW 02:13:03 31° NW 02:13:26 30° NNW
MetOp-B 4.4 02:18:34 52° ENE 02:18:34 52° ENE 02:23:20 10° N
Ariane Rocket 3.6 02:16:49 38° SSW 02:18:16 50° W 02:23:11 10° NNW
Cosmos 2082 Rocket 4.0 02:20:27 10° NNE 02:23:13 18° NE 02:23:13 18° NE
Tianhe-1 4.1 02:26:37 10° WNW 02:28:16 16° NW 02:28:16 16° NW
OAO 3 Rocket 4.2 02:29:30 10° W 02:33:52 39° NNW 02:34:13 39° N
Cosmos 1943 Rocket 4.4 02:39:12 12° NE 02:39:12 12° NE 02:39:40 10° NE
SJ 16-02 2.6 02:36:32 37° W 02:36:53 37° WNW 02:41:01 10° N
COSMOS 2406 3.7 02:32:22 10° N 02:36:56 49° NNE 02:36:56 49° NNE
Cosmos 2278 Rocket 4.0 02:33:47 10° SW 02:38:38 29° WNW 02:43:29 10° N
DELTA 2 R/B (1) 3.8 02:33:37 10° WNW 02:38:23 64° W 02:38:23 64° W
Iridium 4 Rocket 4.0 02:42:49 60° NNE 02:42:49 60° NNE 02:47:38 10° N
Meteor 1-14 Rocket 4.5 02:41:24 10° NNW 02:46:52 65° W 02:46:52 65° W
ATLAS 5 CENTAUR R/B 3.5 02:55:08 10° NW 03:00:59 38° WSW 03:01:21 38° WSW
Mugunghwa Rocket 4.3 02:55:00 10° W 03:00:08 61° W 03:00:08 61° W
CZ-4C R/B 3.0 02:56:33 10° NNW 03:04:32 87° ENE 03:04:45 85° ESE
Resurs 01 Rocket 4.3 03:19:13 15° WNW 03:19:13 15° WNW 03:20:51 10° NW
ATLAS 2AS CENTAUR R/B 4.1 03:14:48 10° N 03:19:41 27° NE 03:19:41 27° NE
Cosmos 1833 Rocket 4.0 03:18:07 10° NNW 03:21:40 36° NW 03:21:40 36° NW
Milstar 3 3.6 03:44:19 10° W 03:56:13 73° WNW 03:56:13 73° WNW
Cosmos 2082 Rocket 4.4 04:03:13 10° NW 04:05:04 20° NW 04:05:04 20° NW
Centaur D AC-29 3.6 02:42:48 10° WSW 04:19:09 75° WSW 04:19:09 75° WSW
CZ-2D R/B 4.5 06:31:39 10° NNE 06:33:07 19° NNE 06:33:07 19° NNE
USA 215 4.4 06:39:06 37° NE 06:39:06 37° NE 06:44:56 10° NNW
Resurs 1-4 Rocket 4.4 06:37:47 10° NNE 06:39:15 19° NNE 06:39:15 19° NNE
USA 281 4.3 06:49:16 40° NE 06:49:16 40° NE 06:54:11 10° N
Cosmos 1980 Rocket 4.3 06:54:10 22° ENE 06:54:10 22° ENE 06:56:29 10° NE
Cosmos 2227 Rocket 3.8 07:07:23 10° N 07:10:57 31° NNE 07:10:57 31° NNE
Cosmos 2297 Rocket 3.9 07:09:45 10° N 07:12:27 28° N 07:12:27 28° N
SL-16 R/B 4.4 07:26:48 15° ESE 07:27:04 15° E 07:30:14 10° ENE
IDEFIX/ARIANE 42P 3.4 07:44:43 10° NNE 07:48:54 48° ENE 07:48:54 48° ENE
Cosmos 2322 Rocket 4.0 07:52:58 20° ESE 07:54:17 21° E 07:58:27 10° NE
SL-16 R/B 3.6 08:00:36 32° NW 08:00:36 32° NW 08:04:07 10° NNW
NOSS 3-2 (A) 4.0 08:00:10 42° ESE 08:00:10 42° ESE 08:05:19 10° NE
Lacrosse 4 Rocket 4.1 08:02:37 13° NNW 08:02:37 13° NNW 08:03:27 10° NNW
Timation 1 Rocket 4.5 07:54:14 10° NNW 08:00:11 69° ENE 08:00:28 68° E
Meteor 1-24 Rocket 3.9 08:01:33 67° ENE 08:01:33 67° ENE 08:06:31 10° NNE
Cosmos 1447 Rocket 4.5 08:03:04 78° NNW 08:03:04 78° NNW 08:09:03 10° N
ADEOS II 3.3 08:03:44 10° N 08:06:52 31° NNW 08:06:52 31° NNW
ARIANE 5 R/B 3.1 08:04:40 10° NNE 08:09:35 48° E 08:09:44 48° ESE
IRS-P3 4.3 08:04:27 10° NNE 08:09:39 67° E 08:09:39 67° E
APEX 4.3 08:07:54 10° NNW 08:13:05 71° ENE 08:14:48 47° SE
USA 238 DEB 4.3 08:12:01 38° SSE 08:13:33 44° ESE 08:19:47 10° NE
USA 238 4.3 08:12:07 38° SSE 08:13:40 44° ESE 08:19:52 10° NE
BREEZE-M R/B 4.1 08:15:07 29° ESE 08:15:07 29° ESE 08:17:26 10° ENE
ADEOS Rocket 3.4 08:12:28 39° SSE 08:15:35 86° ENE 08:23:20 10° NNW
CZ-2D R/B 4.4 08:13:39 10° NW 08:14:26 12° NW 08:14:26 12° NW
Cosmos 2360 Rocket 4.4 08:13:37 11° SE 08:17:04 18° E 08:20:47 10° ENE
CZ-4B R/B 3.6 08:15:13 10° NNE 08:20:17 70° ESE 08:20:30 69° ESE
Meteor 2-5 Rocket 4.1 08:21:35 52° NW 08:21:35 52° NW 08:26:23 10° N
CZ-4C R/B 4.0 08:29:52 53° N 08:29:52 53° N 08:33:07 10° N
Atlas Centaur 2 2.7 08:28:29 56° SW 08:30:10 74° SSE 08:36:51 10° ENE
Cosmos 407 Rocket 3.8 08:25:22 10° NNW 08:29:42 54° NW 08:29:42 54° NW
Cosmos 292 Rocket 3.8 08:32:03 67° NW 08:32:03 67° NW 08:36:30 10° N
ERS-1 4.4 08:29:03 10° NNE 08:34:12 90° S 08:34:50 70° SSW
Cosmos 1980 Rocket 3.6 08:35:56 23° NW 08:35:56 23° NW 08:39:53 10° NNW
CENTAUR R/B 2.6 08:34:15 43° SSE 08:35:44 57° ESE 08:41:46 10° NE
Cosmos 405 4.0 08:35:25 10° N 08:38:01 43° NNE 08:38:01 43° NNE
CZ-2C R/B 3.3 08:41:33 14° ESE 08:41:33 14° ESE 08:42:06 10° ESE
Cosmos 2233 Rocket 4.2 08:34:20 10° NNW 08:40:08 46° W 08:40:08 46° W
Spot 1 4.2 08:46:49 61° W 08:46:49 61° W 08:51:21 10° NNW
Cosmos 1331 Rocket 4.5 08:47:14 29° SSE 08:49:38 56° ESE 08:54:40 10° NNE
Cosmos 1452 Rocket 3.7 08:49:49 50° W 08:50:22 52° WNW 08:55:31 10° N
GPS 2-14 Rocket1 4.0 08:53:14 28° SSE 08:53:14 28° SSE 08:55:56 10° ESE
PAYLOAD A 4.1 08:49:12 10° NNE 08:53:50 61° ESE 08:56:14 27° S
Cosmos 2227 Rocket 4.3 08:52:14 10° NW 08:52:41 12° WNW 08:52:41 12° WNW
Aurora 2 Rocket 4.4 08:54:34 26° S 08:56:26 30° SSE 09:03:01 10° E
Cosmos 1954 Rocket 3.9 08:53:43 10° NNW 08:59:01 82° WSW 09:04:18 10° S
CZ-2D R/B 3.7 08:56:46 10° N 09:01:07 59° WNW 09:01:54 50° WSW
Cosmos 1346 Rocket 2.8 09:04:06 55° W 09:04:15 55° W 09:08:05 10° N
GPS 2-15 Rocket1 3.8 09:09:08 32° SSW 09:09:28 33° S 09:13:38 10° ESE
Cosmos 2333 Rocket 4.3 09:05:27 10° SSE 09:09:54 24° ESE 09:14:22 10° NE
Spot 4 Rocket 4.0 09:05:20 10° N 09:10:25 64° WNW 09:12:53 30° SSW
CZ-2C R/B 2.5 09:05:18 10° NNE 09:10:29 88° ESE 09:14:09 20° SSW
SEDSat Delta rocket 3.3 09:08:14 36° WSW 09:10:31 87° NNW 09:15:22 10° ENE
SL-16 R/B 2.5 09:08:41 34° WSW 09:10:39 48° WNW 09:16:07 10° N
Cosmos 1110 Rocket 3.9 09:08:20 32° SSW 09:10:47 75° WNW 09:15:58 10° NNE
Cosmos 2082 4.3 09:07:09 10° NW 09:12:09 32° WSW 09:12:48 31° WSW
Cosmos 389 Rocket 4.1 09:09:22 10° NNE 09:12:34 35° E 09:15:42 10° SSE
PSLV R/B 4.4 09:09:11 10° NNE 09:13:15 47° E 09:17:18 10° S
ALOS 3.1 09:11:19 10° NNE 09:15:50 50° E 09:20:20 10° S
Cosmos 1455 2.6 09:14:16 10° N 09:18:05 65° E 09:21:54 10° SSE
SL-08 R/B 3.3 09:14:58 14° S 09:19:01 59° WSW 09:23:37 10° NNW
Cosmos 1703 3.2 09:16:45 23° S 09:19:04 86° E 09:22:56 10° N
Cosmos 1892 Rocket 4.2 09:21:24 31° WSW 09:22:15 33° W 09:26:11 10° NNW
CZ-3 Stage 3 4.2 09:24:03 12° S 09:25:20 13° S 09:26:57 10° SE
NOSS 3-2 (C) 3.3 09:24:42 25° SW 09:27:46 58° WNW 09:33:34 10° NNE
IDEFIX/ARIANE 42P 4.5 09:26:40 10° NW 09:28:54 13° WNW 09:29:42 12° WNW
Cosmos 1741 Rocket 4.4 09:28:26 10° N 09:33:38 67° ENE 09:38:48 10° SSE
Cosmos 1484 Rocket 3.4 09:31:35 10° NNE 09:35:24 55° E 09:39:08 10° S
Okean 1-7 Rocket 4.0 09:34:23 19° SW 09:37:15 43° W 09:41:35 10° N
Cosmos 2322 Rocket 2.9 09:34:49 20° WSW 09:37:59 35° WNW 09:43:10 10° N
USA 32 4.1 09:35:26 10° NNW 09:40:34 56° W 09:45:40 10° SSW
Meteor 2-10 Rocket 4.4 09:38:55 10° NNW 09:43:48 32° W 09:48:31 10° SSW
CZ-2C R/B 3.7 09:40:59 10° NNW 09:44:34 32° WNW 09:47:05 17° SW
METEOR-M 4.2 09:41:52 10° NNE 09:47:14 82° ESE 09:52:34 10° S
SL-24 R/B 3.8 09:43:45 10° SSE 09:47:23 80° ENE 09:51:17 10° N
ARIANE 5 R/B 4.3 09:45:42 10° NW 09:48:10 14° WNW 09:50:05 11° W
Cosmos 2058 Rocket 3.3 09:45:24 10° NNW 09:49:46 51° W 09:54:07 10° SSW
Cosmos 2263 Rocket 2.4 09:46:11 10° NNW 09:51:38 50° WSW 09:57:05 10° S
COSMOS 2428 3.9 09:50:10 10° S 09:55:30 43° ESE 10:00:53 10° NE
Cosmos 2360 Rocket 2.7 09:55:25 10° SW 10:00:37 41° WNW 10:05:58 10° N
Cosmos 2219 Rocket 2.7 09:55:15 10° S 10:00:48 63° ESE 10:06:24 10° NNE
CCE 1 Rocket 3.4 09:57:28 13° WSW 10:01:10 67° SSE 10:05:01 10° E
IRAS Rocket 4.2 09:58:04 10° S 10:03:35 70° WSW 10:09:10 10° NNW
Intelsat 5-3 Rocket 3.0 10:01:34 10° WSW 10:09:15 57° S 10:12:35 10° E
Cosmos 1441 Rocket 3.9 10:06:14 10° SSW 10:09:52 37° W 10:13:32 10° NNW
Cosmos 1241 Rocket 4.5 10:04:48 10° NNW 10:11:08 65° WSW 10:17:18 10° SSE
CZ-3B R/B 1.9 10:08:33 10° W 10:11:18 51° S 10:17:18 10° ESE
Cosmos 1992 Rocket 4.5 10:06:45 10° S 10:11:52 65° ESE 10:17:00 10° NNE
Cosmos 1602 Rocket 4.0 10:08:03 10° SSW 10:12:08 42° W 10:16:16 10° N
Cosmos 1758 Rocket 3.6 10:09:03 10° S 10:13:27 82° W 10:17:55 10° N
SWIFT 3.3 10:12:02 10° WSW 10:15:53 33° S 10:19:45 10° ESE
BREEZE-M DEB (TANK) 2.9 10:11:14 10° NW 10:17:25 59° SW 10:19:59 10° SSE
CZ-2C R/B 2.8 10:16:51 10° WSW 10:18:04 12° SW 10:19:18 10° SSW
Atlas Centaur 2 2.8 10:12:32 10° W 10:19:49 67° N 10:25:33 10° ENE
